Wellsville, NY

11:45 AM EDT on April 21, 2018 (GMT -0400)
Wellsville Municipal-Tarantine

Weather History for KELZ - March, 2012

Change the Weather History Date:

Monday, March 12, 2012

  Actual Average (KDSV) Record (KDSV)
Temperature  
Mean Temperature 56 °F -  
Max Temperature 66 °F 40 °F 74 °F (1977)
Min Temperature 46 °F 21 °F -4 °F (1960)
Degree Days  
Heating Degree Days 9    
Growing Degree Days 6 (Base 50)    
Moisture  
Dew Point 33 °F    
Average Humidity 52    
Maximum Humidity 89    
Minimum Humidity 20    
Precipitation  
Precipitation 0.06 in - - ()
Sea Level Pressure  
Sea Level Pressure 30.17 in    
Wind  
Wind Speed 8 mph (SSW)    
Max Wind Speed 14 mph    
Max Gust Speed 22 mph    
Visibility 10 miles    
Events Rain    
Averages and records for this station are not official NWS values.
T = Trace of Precipitation, MM = Missing Value Source: NWS Daily Summary

Daily Weather History Graph

Daily Weather History Graph

Search for Another Location

Airport or City:

Astronomy

Mar. 12, 2012 Rise Set
Actual Time 7:28 AM EDT 7:15 PM EDT
Civil Twilight 7:00 AM EDT 7:43 PM EDT
Nautical Twilight 6:27 AM EDT 8:15 PM EDT
Astronomical Twilight 5:55 AM EDT 8:48 PM EDT
Moon No Moon Rise 9:41 AM EDT (3/12)
Length of Visible Light 12h 43m
Length of Day
11h 47m
Waning Gibbous, 76% of the Moon is Illuminated
Mar 12
Waning Gibbous
Mar 14
Last Quarter
Mar 22
New
Mar 30
First Quarter
Apr 6
Full

Hourly Weather History & Observations

Time (EDT) Temp. Dew Point Humidity Pressure Visibility Wind Dir Wind Speed Gust Speed Precip Events Conditions
12:56 AM 52.0 °F 21.9 °F 31% 30.30 in 10.0 mi WSW 10.4 mph - N/A   Clear
1:56 AM 50.0 °F 21.9 °F 33% 30.30 in 10.0 mi WSW 8.1 mph - N/A   Clear
2:56 AM 50.0 °F 23.0 °F 35% 30.28 in 10.0 mi WSW 6.9 mph - N/A   Clear
3:56 AM 48.9 °F 23.0 °F 36% 30.27 in 10.0 mi WSW 5.8 mph - N/A   Clear
4:56 AM 48.0 °F 23.0 °F 37% 30.28 in 10.0 mi WSW 4.6 mph - N/A   Clear
5:56 AM 48.0 °F 23.0 °F 37% 30.28 in 10.0 mi WSW 4.6 mph - N/A   Clear
6:56 AM 48.9 °F 23.0 °F 36% 30.29 in 10.0 mi SW 5.8 mph - N/A   Clear
7:56 AM 46.0 °F 23.0 °F 40% 30.28 in 10.0 mi Calm Calm - N/A   Clear
8:56 AM 51.1 °F 28.0 °F 41% 30.27 in 10.0 mi Calm Calm - N/A   Clear
9:56 AM 54.0 °F 28.9 °F 38% 30.27 in 10.0 mi Calm Calm - N/A   Clear
10:56 AM 60.1 °F 25.0 °F 26% 30.26 in 10.0 mi SSW 8.1 mph 17.3 mph N/A   Clear
11:56 AM 61.0 °F 26.1 °F 26% 30.24 in 10.0 mi SSW 5.8 mph - N/A   Clear
12:56 PM 66.0 °F 25.0 °F 21% 30.20 in 10.0 mi South 10.4 mph 16.1 mph N/A   Clear
1:56 PM 64.9 °F 24.1 °F 21% 30.17 in 10.0 mi SSW 11.5 mph 19.6 mph N/A   Mostly Cloudy
2:56 PM 66.0 °F 24.1 °F 20% 30.13 in 10.0 mi South 8.1 mph - N/A   Overcast
3:56 PM 64.9 °F 25.0 °F 22% 30.11 in 10.0 mi SSW 12.7 mph 19.6 mph N/A   Overcast
4:56 PM 57.9 °F 37.0 °F 46% 30.14 in 10.0 mi SSW 9.2 mph 19.6 mph 0.00 in Rain Light Rain
5:56 PM 52.0 °F 39.9 °F 63% 30.13 in 10.0 mi SSW 4.6 mph - 0.01 in Rain Light Rain
6:56 PM 50.0 °F 43.0 °F 77% 30.12 in 10.0 mi South 9.2 mph - 0.03 in Rain Light Rain
7:40 PM 50.0 °F 42.8 °F 76% 30.09 in 9.0 mi SSW 9.2 mph 17.3 mph 0.00 in Rain Light Rain
7:56 PM 50.0 °F 43.0 °F 77% 30.12 in 10.0 mi SSW 11.5 mph 18.4 mph 0.00 in   Overcast
8:56 PM 50.0 °F 45.0 °F 83% 30.09 in 10.0 mi South 10.4 mph 18.4 mph 0.01 in Rain Light Rain
9:10 PM 50.0 °F 46.4 °F 87% 30.07 in 10.0 mi South 8.1 mph 18.4 mph 0.00 in   Overcast
9:56 PM 50.0 °F 46.9 °F 89% 30.06 in 10.0 mi South 10.4 mph 16.1 mph 0.00 in Rain Light Rain
10:13 PM 51.8 °F 46.4 °F 82% 30.05 in 10.0 mi South 9.2 mph - 0.00 in   Overcast
10:56 PM 51.1 °F 48.0 °F 89% 30.04 in 4.0 mi South 11.5 mph 19.6 mph 0.01 in Rain Light Rain
11:38 PM 51.8 °F 48.2 °F 88% 30.01 in 10.0 mi South 13.8 mph 19.6 mph 0.00 in   Overcast
11:56 PM 52.0 °F 48.9 °F 89% 30.00 in 10.0 mi South 12.7 mph 21.9 mph 0.00 in   Overcast